Augusta, Maine, United States (04330)
Lat: 44.31N, Lon: 69.78W
Wx Zone: MEZ021
Local Info
Past Weather Observations for Monday, September 29, 2014

NOTE: This archive is for the closest National Weather Service station to Augusta. Information may differ from the station used for current weather conditions.

Click here for Long-term Archive

Time Weather Temperature Dewpoint Humidity Pressure Winds Precip Visibility
23:53
Overcast
54°F / 12°C 48°F / 9°C 82% 30.06 in
(1018 mb)
NE 9.2 mph
(NE 15 kph)
- 10SM
22:53
Overcast
54°F / 12°C 50°F / 10°C 88% 30.06 in
(1018 mb)
NE 6.9 mph
(NE 11 kph)
- 10SM
21:53
Overcast
55°F / 13°C 50°F / 10°C 82% 30.09 in
(1019 mb)
NE 8.1 mph
(NE 13 kph)
- 10SM
20:53
Overcast
55°F / 13°C 50°F / 10°C 82% 30.09 in
(1019 mb)
ENE 6.9 mph
(ENE 11 kph)
- 10SM
19:53
Overcast
55°F / 13°C 52°F / 11°C 88% 30.09 in
(1019 mb)
NE 8.1 mph
(NE 13 kph)
- 10SM
19:10
Overcast
55°F / 13°C 52°F / 11°C 88% 30.09 in
(1019 mb)
ENE 6.9 mph
(ENE 11 kph)
- 10SM
18:53
Overcast
55°F / 13°C 52°F / 11°C 88% 30.09 in
(1019 mb)
ENE 4.6 mph
(ENE 7 kph)
- 10SM
17:53
Overcast
57°F / 14°C 52°F / 11°C 82% 30.06 in
(1018 mb)
E 9.2 mph
(E 15 kph)
- 10SM
17:38
Overcast
57°F / 14°C 52°F / 11°C 82% 30.09 in
(1019 mb)
E 11.5 mph
(E 19 kph)
- 10SM
16:53
Overcast
57°F / 14°C 52°F / 11°C 82% 30.06 in
(1018 mb)
ENE 6.9 mph
(ENE 11 kph)
- 10SM
16:27
Overcast
57°F / 14°C 54°F / 12°C 88% 30.06 in
(1018 mb)
ENE 8.1 mph
(ENE 13 kph)
- 10SM
16:20
Overcast
59°F / 15°C 54°F / 12°C 82% 30.06 in
(1018 mb)
ENE 9.2 mph
(ENE 15 kph)
- 10SM
15:53
Overcast
59°F / 15°C 54°F / 12°C 82% 30.06 in
(1018 mb)
E 9.2 mph
(E 15 kph)
- 10SM
14:53
Overcast
61°F / 16°C 55°F / 13°C 83% 30.04 in
(1017 mb)
ENE 11.5 mph
(ENE 19 kph)
- 9SM
14:04
Overcast
63°F / 17°C 57°F / 14°C 83% 30.04 in
(1017 mb)
NE 11.5 mph
(NE 19 kph)
- 10SM
13:53
Overcast
64°F / 18°C 57°F / 14°C 78% 30.04 in
(1017 mb)
NE 12.7 mph
(NE 20 kph)
- 10SM
12:53
Overcast
70°F / 21°C 57°F / 14°C 64% 30.01 in
(1016 mb)
NE 11.5 mph
(NE 19 kph)
- 10SM
12:11
Mostly Cloudy
70°F / 21°C 57°F / 14°C 64% 30.01 in
(1016 mb)
NE 11.5 mph
(NE 19 kph)
- 10SM
11:53
Partly Cloudy
70°F / 21°C 57°F / 14°C 64% 30.04 in
(1017 mb)
NE 9.2 mph
(NE 15 kph)
- 10SM
10:53
Clear
66°F / 19°C 57°F / 14°C 73% 30.04 in
(1017 mb)
NE 9.2 mph
(NE 15 kph)
- 10SM
09:53
Clear
64°F / 18°C 55°F / 13°C 73% 30.04 in
(1017 mb)
NE 12.7 mph
(NE 20 kph)
- 10SM
08:53
Clear
66°F / 19°C 55°F / 13°C 68% 30.04 in
(1017 mb)
NE 13.8 mph
(NE 22 kph)
- 10SM
07:53
Clear
63°F / 17°C 57°F / 14°C 83% 30.01 in
(1016 mb)
N 6.9 mph
(N 11 kph)
- 10SM
06:53
Clear
57°F / 14°C 55°F / 13°C 94% 30.01 in
(1016 mb)
NNW 3.5 mph
(NNW 6 kph)
- 10SM
05:53
Clear
57°F / 14°C 55°F / 13°C 94% 29.98 in
(1015 mb)
N 5.8 mph
(N 9 kph)
- 9SM
04:53
Clear
61°F / 16°C 55°F / 13°C 83% 29.98 in
(1015 mb)
NNW 3.5 mph
(NNW 6 kph)
- 10SM
03:53
Clear
63°F / 17°C 55°F / 13°C 77% 29.95 in
(1014 mb)
NW 3.5 mph
(NW 6 kph)
- 10SM
02:53
Clear
63°F / 17°C 55°F / 13°C 77% 29.95 in
(1014 mb)
NNW 3.5 mph
(NNW 6 kph)
- 10SM
01:53
Clear
63°F / 17°C 57°F / 14°C 83% 29.95 in
(1014 mb)
NW 6.9 mph
(NW 11 kph)
- 10SM
00:53
Clear
59°F / 15°C 57°F / 14°C 94% 29.95 in
(1014 mb)
NE 3.5 mph
(NE 6 kph)
- 7SM
Time Weather Temperature Dewpoint Humidity Pressure Winds Precip Visibility


Weather for websites

WeatherForYou.com, LLC is not responsible for any damages or problems caused by this service. Current weather conditions are obtained from the closest station including government and personal stations which may have varying degrees of accuracy. Weather forecasts are derived from the NOAA NDFD. Like all things, this site belongs to Jesus Christ... He just trusts me to maintain it. If you have any questions or comments email webmaster@weatherforyou.com

Copyright © 2014, WeatherForYou.com LLC. All rights reserved.